TimeCST,TemperatureF,Dew PointF,Humidity,Sea Level PressureIn,VisibilityMPH,Wind Direction,Wind SpeedMPH,Gust SpeedMPH,PrecipitationIn,Events,Conditions,WindDirDegrees,DateUTC
12:53 AM,-5.1,-8.0,87,30.24,10.0,South,5.8,-,N/A,,Clear,170,2014-02-08 06:53:00
1:53 AM,-0.9,-5.1,83,30.22,10.0,South,4.6,-,N/A,,Overcast,170,2014-02-08 07:53:00
2:53 AM,3.0,-0.9,84,30.19,10.0,South,4.6,-,N/A,,Overcast,170,2014-02-08 08:53:00
3:53 AM,5.0,1.0,84,30.18,10.0,SSE,6.9,-,N/A,,Overcast,150,2014-02-08 09:53:00
4:53 AM,7.0,3.0,84,30.18,8.0,SE,4.6,-,N/A,,Overcast,140,2014-02-08 10:53:00
5:53 AM,8.1,5.0,87,30.16,10.0,SSE,8.1,-,N/A,,Overcast,150,2014-02-08 11:53:00
6:53 AM,9.0,6.1,88,30.15,7.0,SSE,6.9,-,0.00,,Overcast,150,2014-02-08 12:53:00
7:17 AM,9.0,6.1,88,30.08,2.0,SSE,8.1,-,0.00,Snow,Light Snow,160,2014-02-08 13:17:00
7:24 AM,9.0,6.1,88,30.09,1.0,SSE,9.2,-,0.00,Snow,Light Snow,160,2014-02-08 13:24:00
7:31 AM,9.0,6.1,88,30.09,0.8,South,6.9,-,0.00,Snow,Light Snow,170,2014-02-08 13:31:00
7:38 AM,9.0,6.1,88,30.09,1.0,South,8.1,-,0.00,Snow,Light Snow,170,2014-02-08 13:38:00
7:41 AM,9.0,7.0,92,30.09,0.8,South,6.9,-,0.00,Snow,Light Snow,170,2014-02-08 13:41:00
7:53 AM,9.0,6.1,88,30.17,0.8,SSE,5.8,-,0.00,Snow,Light Snow,160,2014-02-08 13:53:00
8:12 AM,9.0,6.1,88,30.09,0.2,SSE,6.9,-,0.01,Fog-Snow,Snow,150,2014-02-08 14:12:00
8:44 AM,9.0,7.0,92,30.09,0.5,SSE,8.1,-,0.04,Fog-Snow,Snow,160,2014-02-08 14:44:00
8:53 AM,9.0,7.0,92,30.16,0.5,SSE,6.9,-,0.04,Fog-Snow,Light Snow,150,2014-02-08 14:53:00
9:07 AM,9.0,7.0,92,30.09,1.0,SSE,6.9,-,0.00,Snow,Light Snow,150,2014-02-08 15:07:00
9:21 AM,9.0,7.0,92,30.09,2.0,SSE,9.2,-,0.00,Snow,Light Snow,150,2014-02-08 15:21:00
9:28 AM,10.0,7.0,87,30.09,1.8,SSE,9.2,-,0.00,Snow,Light Snow,150,2014-02-08 15:28:00
9:41 AM,10.0,6.1,84,30.09,2.5,SSE,8.1,-,0.00,Snow,Light Snow,150,2014-02-08 15:41:00
9:53 AM,10.0,6.1,84,30.16,2.5,SSE,9.2,-,0.00,Snow,Light Snow,160,2014-02-08 15:53:00
10:01 AM,10.0,6.1,84,30.08,3.0,SSE,9.2,-,0.00,Snow,Light Snow,160,2014-02-08 16:01:00
10:11 AM,10.0,7.0,87,30.08,2.5,SSE,9.2,-,0.00,Snow,Light Snow,160,2014-02-08 16:11:00
10:29 AM,10.0,7.0,87,30.09,1.8,South,8.1,-,0.00,Snow,Light Snow,170,2014-02-08 16:29:00
10:53 AM,10.0,7.0,87,30.16,1.0,South,9.2,-,0.00,Snow,Light Snow,170,2014-02-08 16:53:00
11:02 AM,10.9,7.0,84,30.08,0.8,South,9.2,-,0.01,Snow,Light Snow,170,2014-02-08 17:02:00
11:16 AM,10.9,8.1,88,30.08,1.0,South,10.4,-,0.01,Snow,Light Snow,180,2014-02-08 17:16:00
11:18 AM,10.9,8.1,88,30.08,0.8,South,10.4,-,0.01,Snow,Light Snow,180,2014-02-08 17:18:00
11:26 AM,10.9,8.1,88,30.07,0.8,SSE,9.2,-,0.01,Snow,Light Snow,160,2014-02-08 17:26:00
11:34 AM,10.9,8.1,88,30.07,1.2,South,9.2,-,0.01,Snow,Light Snow,170,2014-02-08 17:34:00
11:53 AM,10.9,8.1,88,30.14,2.0,South,9.2,-,0.01,Snow,Light Snow,170,2014-02-08 17:53:00
12:09 PM,12.0,8.1,84,30.06,3.0,South,9.2,-,0.00,Snow,Light Snow,170,2014-02-08 18:09:00
12:53 PM,12.0,8.1,84,30.12,10.0,South,8.1,-,0.00,,Scattered Clouds,170,2014-02-08 18:53:00
1:53 PM,12.0,8.1,84,30.12,8.0,South,4.6,-,N/A,,Scattered Clouds,190,2014-02-08 19:53:00
2:06 PM,12.9,8.1,81,30.05,5.0,SSW,4.6,-,N/A,,Haze,210,2014-02-08 20:06:00
2:53 PM,12.9,8.1,81,30.11,10.0,WNW,4.6,-,N/A,,Scattered Clouds,290,2014-02-08 20:53:00
3:53 PM,10.9,7.0,84,30.14,10.0,West,3.5,-,N/A,,Clear,260,2014-02-08 21:53:00
4:53 PM,5.0,1.0,84,30.16,9.0,WNW,5.8,-,N/A,,Clear,300,2014-02-08 22:53:00
5:53 PM,7.0,3.0,84,30.16,10.0,NNW,5.8,-,N/A,,Clear,340,2014-02-08 23:53:00
6:53 PM,7.0,3.0,84,30.19,9.0,WNW,4.6,-,N/A,,Clear,300,2014-02-09 00:53:00
7:53 PM,6.1,3.0,87,30.20,8.0,West,4.6,-,N/A,,Clear,280,2014-02-09 01:53:00
8:53 PM,3.9,1.0,88,30.21,8.0,Calm,Calm,-,N/A,,Clear,0,2014-02-09 02:53:00
9:53 PM,3.9,1.0,88,30.22,7.0,WNW,6.9,-,N/A,,Clear,290,2014-02-09 03:53:00
10:53 PM,5.0,1.9,87,30.22,8.0,WNW,8.1,-,N/A,,Clear,300,2014-02-09 04:53:00
11:53 PM,6.1,3.0,87,30.22,8.0,NW,8.1,-,N/A,,Clear,310,2014-02-09 05:53:00